Weather History for Eagle River, WI

Change the Weather History Date:

Thursday, December 20, 2012

  Actual Average Record
Temperature  
Mean Temperature 29 °F -  
Max Temperature 32 °F 27 °F 39 °F (2006)
Min Temperature 26 °F 5 °F -14 °F (2008)
Degree Days  
Heating Degree Days 36    
Moisture  
Dew Point 28 °F    
Average Humidity 99    
Maximum Humidity 100    
Minimum Humidity 93    
Precipitation  
Precipitation 0.00 in - - ()
Sea Level Pressure  
Sea Level Pressure 29.68 in    
Wind  
Wind Speed 8 mph (NNE)    
Max Wind Speed 25 mph    
Max Gust Speed 34 mph    
Visibility 3 miles    
Events Snow    
Averages and records for this station are not official NWS values.
T = Trace of Precipitation, MM = Missing Value Source: NWS Daily Summary

Daily Weather History Graph

Daily Weather History Graph

Search for Another Location

Airport:

Trip Planner

Search our weather history database for the weather conditions in past years. The results will help you decide how hot, cold, wet, or windy it might be!

Date:

Astronomy

Dec. 20, 2012 Rise Set
Actual Time 7:35 AM CST 4:14 PM CST
Civil Twilight 7:00 AM CST 4:49 PM CST
Nautical Twilight 6:22 AM CST 5:27 PM CST
Astronomical Twilight 5:46 AM CST 6:03 PM CST
Moon 11:48 AM CST (12/20) 12:05 AM CST (12/20)
Length of Visible Light 9h 48m
Length of Day
8h 38m
First Quarter, 55% of the Moon is Illuminated
Dec 20
First Quarter
Dec 28
Full
Jan 4
Last Quarter
Jan 11
New
Jan 18
First Quarter

Hourly Weather History & Observations

Time (CST) Temp. Windchill Dew Point Humidity Pressure Visibility Wind Dir Wind Speed Gust Speed Precip Events Conditions
12:15 AM 26.6 °F - 26.6 °F 100% 29.93 in 7.0 mi Calm Calm - N/A   Overcast
12:35 AM 26.6 °F - 26.6 °F 100% 29.93 in 7.0 mi Calm Calm - N/A   Overcast
12:55 AM 26.6 °F - 26.6 °F 100% 29.92 in 7.0 mi Calm Calm - N/A   Overcast
1:35 AM 26.6 °F 22.6 °F 26.6 °F 100% 29.91 in 7.0 mi North 3.5 mph - N/A   Overcast
1:55 AM 26.6 °F 22.6 °F 26.6 °F 100% 29.90 in 7.0 mi NNE 3.5 mph - N/A   Overcast
2:15 AM 26.6 °F 21.2 °F 26.6 °F 100% 29.90 in 7.0 mi NNE 4.6 mph - N/A   Overcast
2:35 AM 26.6 °F 21.2 °F 26.6 °F 100% 29.89 in 7.0 mi NE 4.6 mph - N/A   Overcast
2:55 AM 26.6 °F 21.2 °F 26.6 °F 100% 29.89 in 7.0 mi ENE 4.6 mph - N/A   Overcast
3:15 AM 26.6 °F 21.2 °F 26.6 °F 100% 29.88 in 7.0 mi ENE 4.6 mph - N/A   Overcast
3:35 AM 26.6 °F 20.0 °F 26.6 °F 100% 29.88 in 7.0 mi East 5.8 mph - N/A   Overcast
3:55 AM 26.6 °F 22.6 °F 26.6 °F 100% 29.87 in 5.0 mi East 3.5 mph - N/A   Overcast
4:15 AM 26.6 °F 21.2 °F 26.6 °F 100% 29.86 in 4.0 mi East 4.6 mph - N/A Snow Light Snow
4:35 AM 26.6 °F 21.2 °F 26.6 °F 100% 29.84 in 1.8 mi ENE 4.6 mph - N/A Snow Light Snow
4:55 AM 26.6 °F 20.0 °F 26.6 °F 100% 29.83 in 2.5 mi NE 5.8 mph - N/A Snow Light Snow
5:15 AM 26.6 °F 21.2 °F 26.6 °F 100% 29.82 in 1.8 mi ENE 4.6 mph - N/A Snow Light Snow
5:35 AM 26.6 °F 20.0 °F 26.6 °F 100% 29.81 in 2.0 mi NE 5.8 mph - N/A Snow Light Snow
5:55 AM 26.6 °F 20.0 °F 26.6 °F 100% 29.80 in 2.0 mi NE 5.8 mph - N/A Snow Light Snow
6:15 AM 26.6 °F 20.0 °F 26.6 °F 100% 29.79 in 1.8 mi NNE 5.8 mph - N/A Snow Light Snow
6:35 AM 26.6 °F 20.0 °F 26.6 °F 100% 29.79 in 1.5 mi NNE 5.8 mph - N/A Snow Light Snow
6:55 AM 26.6 °F 19.1 °F 26.6 °F 100% 29.78 in 2.5 mi North 6.9 mph - N/A Snow Light Snow
7:15 AM 26.6 °F 18.2 °F 26.6 °F 100% 29.78 in 5.0 mi North 8.1 mph - N/A Snow Light Snow
7:55 AM 26.6 °F 19.1 °F 26.6 °F 100% 29.75 in 1.2 mi NNE 6.9 mph - N/A Snow Light Snow
8:15 AM 26.6 °F 17.5 °F 26.6 °F 100% 29.74 in 1.0 mi North 9.2 mph - N/A Snow Light Snow
8:35 AM 26.6 °F 17.5 °F 26.6 °F 100% 29.72 in 1.8 mi North 9.2 mph - N/A Snow Light Snow
8:55 AM 26.6 °F 16.8 °F 26.6 °F 100% 29.72 in 2.5 mi North 10.4 mph - N/A Snow Light Snow
9:15 AM 26.6 °F 16.2 °F 26.6 °F 100% 29.72 in 1.5 mi North 11.5 mph - N/A Snow Light Snow
9:35 AM 26.6 °F 16.8 °F 26.6 °F 100% 29.72 in 1.2 mi North 10.4 mph 17.3 mph N/A Snow Light Snow
9:55 AM 26.6 °F 16.8 °F 26.6 °F 100% 29.71 in 1.2 mi NNE 10.4 mph 17.3 mph N/A Snow Light Snow
10:15 AM 26.6 °F 15.7 °F 26.6 °F 100% 29.70 in 1.2 mi NNE 12.7 mph 16.1 mph N/A Snow Light Snow
10:35 AM 26.6 °F 15.7 °F 26.6 °F 100% 29.69 in 1.2 mi North 12.7 mph - N/A Snow Light Snow
10:55 AM 26.6 °F 15.7 °F 26.6 °F 100% 29.67 in 1.2 mi North 12.7 mph - N/A Snow Light Snow
11:15 AM 26.6 °F 15.7 °F 26.6 °F 100% 29.65 in 1.5 mi North 12.7 mph 18.4 mph N/A Snow Light Snow
11:35 AM 28.4 °F 17.0 °F 26.6 °F 93% 29.64 in 2.5 mi North 15.0 mph 19.6 mph N/A Snow Light Snow
11:55 AM 28.4 °F 17.0 °F 28.4 °F 100% 29.62 in 1.2 mi North 15.0 mph 18.4 mph N/A Snow Light Snow
12:15 PM 28.4 °F 17.5 °F 28.4 °F 100% 29.61 in 1.0 mi North 13.8 mph 23.0 mph N/A Snow Light Snow
12:35 PM 28.4 °F 18.5 °F 28.4 °F 100% 29.60 in 1.0 mi North 11.5 mph 20.7 mph N/A Snow Light Snow
12:55 PM 28.4 °F 16.6 °F 28.4 °F 100% 29.59 in 1.2 mi North 16.1 mph 21.9 mph N/A Snow Light Snow
1:15 PM 30.2 °F 18.5 °F 28.4 °F 93% 29.57 in 1.8 mi North 17.3 mph 24.2 mph N/A Snow Light Snow
1:35 PM 30.2 °F 19.8 °F 30.2 °F 100% 29.57 in 1.8 mi North 13.8 mph 19.6 mph N/A Snow Light Snow
1:55 PM 30.2 °F 19.3 °F 30.2 °F 100% 29.56 in 1.5 mi North 15.0 mph 26.5 mph N/A Snow Light Snow
2:15 PM 30.2 °F 19.8 °F 30.2 °F 100% 29.55 in 1.2 mi North 13.8 mph 19.6 mph N/A Snow Light Snow
2:35 PM 30.2 °F 18.9 °F 30.2 °F 100% 29.54 in 1.5 mi North 16.1 mph 23.0 mph N/A Snow Light Snow
2:55 PM 30.2 °F 18.5 °F 30.2 °F 100% 29.54 in 1.2 mi North 17.3 mph 24.2 mph N/A Snow Light Snow
3:15 PM 30.2 °F 19.8 °F 30.2 °F 100% 29.54 in 1.0 mi North 13.8 mph 26.5 mph N/A Snow Light Snow
3:35 PM 30.2 °F 19.8 °F 30.2 °F 100% 29.54 in 1.5 mi North 13.8 mph 23.0 mph N/A Snow Light Snow
3:55 PM 32.0 °F 21.2 °F 32.0 °F 100% 29.54 in 1.5 mi North 16.1 mph 21.9 mph N/A Snow Light Snow
4:15 PM 32.0 °F 22.5 °F 32.0 °F 100% 29.55 in 1.2 mi North 12.7 mph 25.3 mph N/A Snow Light Snow
4:35 PM 32.0 °F 22.5 °F 32.0 °F 100% 29.55 in 1.5 mi North 12.7 mph 20.7 mph N/A Snow Light Snow
4:55 PM 32.0 °F 22.5 °F 32.0 °F 100% 29.55 in 1.8 mi North 12.7 mph 19.6 mph N/A Snow Light Snow
5:15 PM 32.0 °F 21.6 °F 32.0 °F 100% 29.55 in 1.8 mi North 15.0 mph 23.0 mph N/A Snow Light Snow
5:35 PM 32.0 °F 21.2 °F 32.0 °F 100% 29.55 in 2.5 mi North 16.1 mph 24.2 mph N/A Snow Light Snow
5:55 PM 32.0 °F 20.8 °F 32.0 °F 100% 29.56 in 2.5 mi North 17.3 mph 21.9 mph N/A Snow Light Snow
6:15 PM 32.0 °F 22.1 °F 32.0 °F 100% 29.56 in 2.5 mi North 13.8 mph 23.0 mph N/A Snow Light Snow
6:35 PM 32.0 °F 20.8 °F 30.2 °F 93% 29.56 in 3.0 mi North 17.3 mph 25.3 mph N/A Snow Light Snow
6:55 PM 32.0 °F 20.8 °F 30.2 °F 93% 29.57 in 3.0 mi North 17.3 mph 25.3 mph N/A Snow Light Snow
7:15 PM 32.0 °F 20.8 °F 30.2 °F 93% 29.57 in 3.0 mi North 17.3 mph 24.2 mph N/A Snow Light Snow
7:35 PM 32.0 °F 20.8 °F 30.2 °F 93% 29.58 in 3.0 mi North 17.3 mph 25.3 mph N/A Snow Light Snow
7:55 PM 30.2 °F 18.5 °F 30.2 °F 100% 29.58 in 3.0 mi North 17.3 mph 26.5 mph N/A Snow Light Snow
8:15 PM 30.2 °F 18.9 °F 30.2 °F 100% 29.58 in 3.0 mi North 16.1 mph 27.6 mph N/A Snow Light Snow
8:35 PM 30.2 °F 19.3 °F 30.2 °F 100% 29.59 in 1.8 mi North 15.0 mph 20.7 mph N/A Snow Light Snow
8:55 PM 30.2 °F 17.4 °F 30.2 °F 100% 29.59 in 2.5 mi North 20.7 mph 28.8 mph N/A Snow Light Snow
9:15 PM 30.2 °F 17.8 °F 30.2 °F 100% 29.60 in 2.5 mi North 19.6 mph 27.6 mph N/A Snow Light Snow
9:35 PM 30.2 °F 17.4 °F 30.2 °F 100% 29.60 in 1.8 mi North 20.7 mph 29.9 mph N/A Snow Light Snow
9:55 PM 30.2 °F 17.1 °F 28.4 °F 93% 29.60 in 2.5 mi North 21.9 mph 32.2 mph N/A Snow Light Snow
10:15 PM 30.2 °F 16.2 °F 28.4 °F 93% 29.61 in 2.5 mi North 25.3 mph 34.5 mph N/A Snow Light Snow
10:35 PM 28.4 °F 14.7 °F 28.4 °F 100% 29.62 in 2.5 mi North 21.9 mph 31.1 mph N/A Snow Light Snow
10:55 PM 28.4 °F 15.8 °F 26.6 °F 93% 29.62 in 2.5 mi North 18.4 mph 32.2 mph N/A Snow Light Snow
11:15 PM 28.4 °F 13.8 °F 26.6 °F 93% 29.63 in 2.5 mi NNW 25.3 mph 33.4 mph N/A Snow Light Snow
11:35 PM 28.4 °F 14.4 °F 26.6 °F 93% 29.63 in 3.0 mi North 23.0 mph 27.6 mph N/A Snow Light Snow
11:55 PM 26.6 °F 13.8 °F 26.6 °F 100% 29.64 in 2.0 mi North 17.3 mph 26.5 mph N/A Snow Light Snow